YPPHYGEL

Guest
Details From YPPH - Perth
To YGEL - Geraldton
Flight Number -
Tags Generated
Created
Modified
Stats Distance 201 nm / 373 km
Max Altitude 0 ft / 0 m
Waypoints 2
Social Downloads 4
Likes 0
Share VATSIM

Download

Looking for another format? Having issues loading an existing format? Contact us
Advertisement - Login to hide

Notes

Generated

Route

YPPH YGEL

ID Type Via Altitude Latitude Longitude Leg Dist Tot Dist Heading (true) Name
O YPPH APT - 0 ft / 0 m -31.95862˚ 115.95972˚ - 0 nm - -
O YGEL APT - 0 ft / 0 m -28.78796˚ 114.70038˚ 201 nm 201 nm 341° / 341° Geraldton

Altitude Profile

Advertisement - Login to hide

Weather


0- 5 10 15 20 25 30 35+ Temperature / ° C

Clouds and Precipitation
Forecast for 2018-05-21 06:00 UTC. Updated an hour ago

Ground ~20,000 ft ~40,000 ft Winds

YPPH

Details ICAO YPPH (PER)
Name Perth
Region Australia
Timezone Australia/Perth (UTC+8.0)
Stats Elevation 70 ft / 21 m (AMSL)
Location -31.939673° 115.966614°
Runways 2
Magnetic Variation 1.675° W

METAR

YPPH 210400Z 01010KT CAVOK 23/05 Q1026 NOSIG

Decode

TAF

TAF YPPH 202300Z 2100/2206 07008KT CAVOK FM210200 03012KT CAVOK FM210900 07008KT CAVOK FM220200 03012KT CAVOK

Decode

Departure Runways

ID Width Length Bearing (true) Bearing (mag) Surface Threshold Offset Overrun Length
03 151 ft / 46 m 11,390 ft / 3,472 m 13.89° 15.56° Asphalt 0 ft / 0 m 0 ft / 0 m
06 151 ft / 46 m 7,096 ft / 2,163 m 58.78° 60.45° Asphalt 0 ft / 0 m 0 ft / 0 m
21 151 ft / 46 m 11,390 ft / 3,472 m 193.88° 195.55° Asphalt 0 ft / 0 m 0 ft / 0 m
24 151 ft / 46 m 7,096 ft / 2,163 m 238.77° 240.44° Asphalt 0 ft / 0 m 0 ft / 0 m

YGEL

Details ICAO YGEL (GET)
Name Geraldton
Region Australia
Timezone Australia/Perth (UTC+8.0)
Stats Elevation 121 ft / 37 m (AMSL)
Location -28.791486° 114.704952°
Runways 3
Magnetic Variation 1.088° W

METAR

YGEL 210330Z 02014KT CAVOK 25/01 Q1023

Decode

TAF

TAF AMD YGEL 210107Z 2101/2118 04018G28KT CAVOK FM210400 05010KT CAVOK FM210800 18012KT CAVOK FM211100 10008KT CAVOK

Decode

Destination Runways

ID Width Length Bearing (true) Bearing (mag) Surface Threshold Offset Overrun Length
03 148 ft / 45 m 6,518 ft / 1,987 m 18.30° 19.39° Asphalt 0 ft / 0 m 194 ft / 59 m
06 102 ft / 31 m 2,253 ft / 687 m 79.36° 80.45° Dirt 0 ft / 0 m 561 ft / 171 m
14 164 ft / 50 m 3,106 ft / 947 m 142.42° 143.51° Dirt 0 ft / 0 m 0 ft / 0 m
21 148 ft / 45 m 6,518 ft / 1,987 m 198.30° 199.39° Asphalt 0 ft / 0 m 220 ft / 67 m
24 102 ft / 31 m 2,253 ft / 687 m 259.36° 260.45° Dirt 0 ft / 0 m 135 ft / 41 m
32 164 ft / 50 m 3,106 ft / 947 m 322.41° 323.50° Dirt 0 ft / 0 m 0 ft / 0 m

Popular Alternatives